Tacoma Narrows, WA
on Tuesday, January 1, 2013

Tuesday
Previous Day Next Day
Daily Summary
 ActualAverageRecord
Temperature
Mean Temperature °F °F  
Max Temperature 41°F 43°F 53°F (2006)
Min Temperature 28°F 36°F 25°F (2011)
Degree Days
Heating Degree Days 30    
Moisture
Dew Point 30°F   
Average Humidity 82    
Maximum Humidity 93    
Minimum Humidity 67    
Precipitation
Precipitation 0.00 in in in ()
Wind
Wind Speed 3 mph   
Max Wind Speed 9 mph   
Max Gust Speed mph   
Visibility 9 miles   
Events Fog   
Averages and records for this station are not official NWS values.
Key: T is trace of precipitation, MM is missing value
Source: NWS Daily Summary
Seasonal Weather Averages
Time(PST)TemperatureDew PointHumidity Pressure Visibility Wind DirectionWind SpeedGust SpeedPrecipitationEvents Conditions
12:48 AM 35.6°F 30.2°F 81% 30.46 in 10.0 miles NNE 4.6 mph - N/A   Mostly Cloudy
12:53 AM 36.0°F 30.9°F 82% 30.47 in 10.0 miles NNE 4.6 mph - N/A   Mostly Cloudy
1:53 AM 35.1°F 30.9°F 85% 30.47 in 10.0 miles ENE 3.5 mph - N/A   Mostly Cloudy
2:18 AM 33.8°F 30.2°F 87% 30.47 in 10.0 miles Calm Calm - N/A   Partly Cloudy
2:35 AM 33.8°F 30.2°F 87% 30.48 in 10.0 miles Calm Calm - N/A   Mostly Cloudy
2:53 AM 34.0°F 28.0°F 79% 30.50 in 10.0 miles Calm Calm - N/A   Overcast
3:26 AM 35.6°F 28.4°F 75% 30.46 in 10.0 miles Calm Calm - N/A   Overcast
3:53 AM 35.1°F 28.9°F 78% 30.48 in 10.0 miles Calm Calm - N/A   Overcast
4:09 AM 33.8°F 28.4°F 81% 30.46 in 10.0 miles Calm Calm - N/A   Overcast
4:20 AM 33.8°F 28.4°F 81% 30.46 in 10.0 miles North 3.5 mph - N/A   Overcast
4:41 AM 33.8°F 28.4°F 81% 30.45 in 10.0 miles Calm Calm - N/A   Scattered Clouds
4:53 AM 34.0°F 28.0°F 79% 30.45 in 10.0 miles Calm Calm - N/A   Clear
5:53 AM 33.1°F 27.0°F 78% 30.45 in 10.0 miles Calm Calm - N/A   Clear
6:53 AM 28.9°F 27.0°F 92% 30.45 in 4.0 miles North 3.5 mph - N/A   Clear
7:53 AM 28.9°F 27.0°F 92% 30.46 in 2.5 miles Calm Calm - N/A   Clear
8:00 AM 28.4°F 26.6°F 93% 30.45 in 9.0 miles Calm Calm - N/A   Partly Cloudy
8:53 AM 34.0°F 30.9°F 89% 30.50 in 6.0 miles Calm Calm - N/A   Overcast
9:37 AM 33.8°F 30.2°F 87% 30.48 in 10.0 miles Variable 3.5 mph - N/A   Scattered Clouds
9:53 AM 34.0°F 30.0°F 85% 30.50 in 10.0 miles NE 3.5 mph - N/A   Partly Cloudy
10:53 AM 37.0°F 28.9°F 73% 30.49 in 10.0 miles North 3.5 mph - N/A   Scattered Clouds
11:53 AM 39.0°F 30.0°F 70% 30.47 in 10.0 miles North 9.2 mph - N/A   Clear
12:53 PM 41.0°F 30.9°F 67% 30.45 in 10.0 miles North 5.8 mph - N/A   Clear
1:53 PM 41.0°F 30.9°F 67% 30.44 in 10.0 miles Variable 4.6 mph - N/A   Clear
2:53 PM 39.9°F 30.9°F 70% 30.43 in 10.0 miles NNE 4.6 mph - N/A   Clear
3:53 PM 39.9°F 32.0°F 73% 30.43 in 10.0 miles North 5.8 mph - N/A   Clear
4:53 PM 39.0°F 32.0°F 76% 30.42 in 10.0 miles North 5.8 mph - N/A   Clear
5:53 PM 35.1°F 30.9°F 85% 30.41 in 10.0 miles NNW 5.8 mph - N/A   Clear
6:53 PM 37.9°F 33.1°F 83% 30.39 in 10.0 miles North 9.2 mph - N/A   Clear
7:53 PM 36.0°F 32.0°F 86% 30.38 in 10.0 miles Calm Calm - N/A   Clear
8:53 PM 37.0°F 33.1°F 86% 30.37 in 10.0 miles Calm Calm - N/A   Clear
9:53 PM 34.0°F 30.0°F 85% 30.37 in 10.0 miles Calm Calm - N/A   Clear
10:53 PM 34.0°F 30.9°F 89% 30.37 in 9.0 miles Calm Calm - N/A   Clear
11:30 PM 32.0°F 30.2°F 93% 30.35 in 1.8 miles Calm Calm - N/A   Clear
11:53 PM 30.9°F 28.9°F 92% 30.36 in 0.5 miles Calm Calm - N/A Fog Light Freezing Fog
Moon Phase
Jan. 01 Jan. 04 Jan. 11 Jan. 18 Jan. 26
Sunrise:07:57 AM (PST) Moon Rise:09:28 PM (PST)1/1
Sunset:04:31 PM (PST) Moon Set:09:53 AM (PST)1/1

Copyright © 2014 The Weather Underground, Inc.